Nebraska City, NE

6:00 PM CDT on March 25, 2017 (GMT -0500)
Nebraska City Municipal

Weather History for KAFK - May, 2014

Change the Weather History Date:

Tuesday, May 6, 2014

  Actual Average (KSDA) Record (KSDA)
Temperature  
Mean Temperature 69 °F -  
Max Temperature 84 °F 72 °F 93 °F (2004)
Min Temperature 54 °F 50 °F 33 °F (1992)
Cooling Degree Days 4    
Growing Degree Days 19 (Base 50)    
Moisture  
Dew Point 53 °F    
Average Humidity 52    
Maximum Humidity 66    
Minimum Humidity 40    
Precipitation  
Precipitation 0.00 in - - ()
Sea Level Pressure  
Sea Level Pressure 29.60 in    
Wind  
Wind Speed 11 mph (SE)    
Max Wind Speed 18 mph    
Max Gust Speed 25 mph    
Visibility 10 miles    
Events      
Averages and records for this station are not official NWS values.
T = Trace of Precipitation, MM = Missing Value Source: NWS Daily Summary

Daily Weather History Graph

Daily Weather History Graph

Search for Another Location

Airport or City:

Trip Planner

Search our weather history database for the weather conditions in past years. The results will help you decide how hot, cold, wet, or windy it might be!

Date:

Astronomy

May. 06, 2014 Rise Set
Actual Time 6:16 AM CDT 8:24 PM CDT
Civil Twilight 5:46 AM CDT 8:54 PM CDT
Nautical Twilight 5:09 AM CDT 9:31 PM CDT
Astronomical Twilight 4:28 AM CDT 10:12 PM CDT
Moon 12:33 PM CDT (5/6) 1:44 AM CDT (5/6)
Length of Visible Light 15h 08m
Length of Day
14h 08m
Waxing Crescent, 46% of the Moon is Illuminated
May 6
Waxing Crescent
May 6
First Quarter
May 14
Full
May 21
Last Quarter
May 28
New

Hourly Weather History & Observations

Time (CDT) Temp. Heat Index Dew Point Humidity Pressure Visibility Wind Dir Wind Speed Gust Speed Precip Events Conditions
12:15 AM 58.1 °F - 44.2 °F 60% 29.79 in 10.0 mi East 6.9 mph - N/A   Clear
12:35 AM 57.7 °F - 44.2 °F 61% 29.78 in 10.0 mi East 8.1 mph - N/A   Clear
12:55 AM 57.4 °F - 44.2 °F 62% 29.78 in 10.0 mi East 6.9 mph - N/A   Clear
1:15 AM 57.0 °F - 44.2 °F 62% 29.76 in 10.0 mi East 6.9 mph - N/A   Clear
1:35 AM 57.0 °F - 44.2 °F 62% 29.75 in 10.0 mi East 8.1 mph - N/A   Clear
1:55 AM 56.7 °F - 44.2 °F 63% 29.74 in 10.0 mi East 6.9 mph - N/A   Clear
2:15 AM 56.7 °F - 44.1 °F 63% 29.73 in 10.0 mi East 9.2 mph - N/A   Clear
2:35 AM 56.7 °F - 44.1 °F 63% 29.73 in 10.0 mi East 8.1 mph - N/A   Clear
6:55 AM 54.9 °F - 43.7 °F 66% 29.69 in 10.0 mi ESE 13.8 mph 19.6 mph N/A   Clear
7:15 AM 55.2 °F - 43.7 °F 65% 29.68 in 10.0 mi ESE 10.4 mph 19.6 mph N/A   Clear
7:35 AM 55.8 °F - 43.9 °F 64% 29.68 in 10.0 mi ESE 13.8 mph 19.6 mph N/A   Clear
7:55 AM 56.7 °F - 44.2 °F 63% 29.68 in 10.0 mi ESE 12.7 mph - N/A   Clear
8:15 AM 57.9 °F - 45.0 °F 62% 29.68 in 10.0 mi ESE 15.0 mph 19.6 mph N/A   Clear
8:55 AM 60.8 °F - 46.4 °F 59% 29.68 in 10.0 mi ESE 12.7 mph 18.4 mph N/A   Clear
9:15 AM 62.8 °F - 47.8 °F 58% 29.68 in 10.0 mi ESE 12.7 mph - N/A   Clear
9:35 AM 64.4 °F - 48.9 °F 57% 29.68 in 10.0 mi ESE 15.0 mph 20.7 mph N/A   Clear
9:55 AM 65.8 °F - 50.0 °F 57% 29.67 in 10.0 mi ESE 13.8 mph 18.4 mph N/A   Clear
10:15 AM 66.7 °F - 50.2 °F 55% 29.66 in 10.0 mi SE 15.0 mph 19.6 mph N/A   Clear
10:35 AM 67.6 °F - 51.4 °F 56% 29.67 in 10.0 mi SE 13.8 mph 19.6 mph N/A   Clear
10:55 AM 68.9 °F - 52.2 °F 55% 29.65 in 10.0 mi ESE 12.7 mph - N/A   Clear
11:15 AM 70.7 °F - 52.5 °F 52% 29.64 in 10.0 mi SE 15.0 mph - N/A   Clear
11:35 AM 71.4 °F - 53.2 °F 53% 29.63 in 10.0 mi ESE 16.1 mph 19.6 mph N/A   Clear
11:55 AM 72.7 °F - 53.8 °F 51% 29.63 in 10.0 mi SE 13.8 mph 19.6 mph N/A   Clear
12:15 PM 74.3 °F - 54.3 °F 50% 29.62 in 10.0 mi SE 12.7 mph 18.4 mph N/A   Clear
12:35 PM 74.5 °F - 54.0 °F 49% 29.61 in 10.0 mi ESE 12.7 mph 17.3 mph N/A   Clear
12:55 PM 76.3 °F - 55.0 °F 48% 29.62 in 10.0 mi SE 11.5 mph 16.1 mph N/A   Clear
1:15 PM 77.0 °F - 54.9 °F 46% 29.60 in 10.0 mi SE 10.4 mph 17.3 mph N/A   Clear
1:35 PM 77.7 °F - 55.2 °F 46% 29.59 in 10.0 mi ESE 11.5 mph 21.9 mph N/A   Clear
1:55 PM 78.8 °F - 55.4 °F 44% 29.59 in 10.0 mi ESE 16.1 mph 23.0 mph N/A   Clear
2:15 PM 79.3 °F - 55.9 °F 44% 29.58 in 10.0 mi SE 12.7 mph 25.3 mph N/A   Clear
2:35 PM 79.5 °F - 55.2 °F 43% 29.57 in 10.0 mi ESE 15.0 mph 21.9 mph N/A   Clear
3:15 PM 80.8 °F 80.8 °F 56.7 °F 43% 29.56 in 10.0 mi SSE 15.0 mph 23.0 mph N/A   Clear
3:35 PM 81.3 °F 81.3 °F 57.2 °F 44% 29.54 in 10.0 mi SE 16.1 mph 20.7 mph N/A   Clear
3:55 PM 81.5 °F 81.4 °F 56.8 °F 43% 29.53 in 10.0 mi SE 17.3 mph 21.9 mph N/A   Clear
4:15 PM 81.7 °F 81.6 °F 57.6 °F 44% 29.52 in 10.0 mi SE 18.4 mph 25.3 mph N/A   Clear
4:35 PM 82.6 °F 82.3 °F 57.9 °F 43% 29.52 in 10.0 mi SE 12.7 mph 25.3 mph N/A   Clear
4:55 PM 82.8 °F 82.5 °F 58.1 °F 43% 29.52 in 10.0 mi SE 17.3 mph 21.9 mph N/A   Clear
5:15 PM 82.9 °F 82.7 °F 58.5 °F 43% 29.52 in 10.0 mi SSE 17.3 mph 21.9 mph N/A   Clear
5:35 PM 83.8 °F 83.3 °F 58.1 °F 41% 29.52 in 10.0 mi South 18.4 mph 25.3 mph N/A   Clear
5:55 PM 84.2 °F 83.7 °F 58.1 °F 41% 29.52 in 10.0 mi South 15.0 mph 24.2 mph N/A   Clear
6:15 PM 84.4 °F 83.7 °F 57.7 °F 40% 29.51 in 10.0 mi SSE 12.7 mph 24.2 mph N/A   Clear
6:35 PM 84.4 °F 83.7 °F 57.9 °F 40% 29.50 in 10.0 mi SSE 15.0 mph 19.6 mph N/A   Clear
6:55 PM 84.0 °F 83.5 °F 57.9 °F 41% 29.50 in 10.0 mi SSE 15.0 mph 20.7 mph N/A   Clear
7:15 PM 83.5 °F 82.9 °F 57.4 °F 41% 29.50 in 10.0 mi SSE 15.0 mph - N/A   Clear
7:35 PM 82.8 °F 82.5 °F 58.3 °F 43% 29.51 in 10.0 mi SSE 12.7 mph 18.4 mph N/A   Clear
7:55 PM 82.0 °F 82.1 °F 58.5 °F 45% 29.51 in 10.0 mi SE 10.4 mph - N/A   Clear
8:15 PM 81.0 °F 81.2 °F 58.1 °F 46% 29.51 in 10.0 mi SE 10.4 mph - N/A   Clear
8:35 PM 79.7 °F - 58.5 °F 48% 29.52 in 10.0 mi SE 8.1 mph - N/A   Clear
8:55 PM 79.5 °F - 59.0 °F 49% 29.52 in 10.0 mi SE 8.1 mph - N/A   Clear
9:15 PM 78.6 °F - 59.2 °F 51% 29.52 in 10.0 mi SE 6.9 mph - N/A   Clear
9:35 PM 77.4 °F - 59.2 °F 53% 29.52 in 10.0 mi SE 6.9 mph - N/A   Clear
9:55 PM 76.8 °F - 59.4 °F 55% 29.52 in 10.0 mi SSE 8.1 mph - N/A   Clear
10:15 PM 76.1 °F - 59.2 °F 56% 29.53 in 10.0 mi SE 8.1 mph - N/A   Clear
10:55 PM 76.1 °F - 59.5 °F 56% 29.53 in 10.0 mi SE 8.1 mph - N/A   Clear
11:15 PM 74.3 °F - 59.9 °F 61% 29.53 in 10.0 mi ESE 6.9 mph - N/A   Clear
11:35 PM 73.2 °F - 59.4 °F 62% 29.52 in 10.0 mi ESE 5.8 mph - N/A   Clear
11:55 PM 73.2 °F - 59.7 °F 63% 29.52 in 10.0 mi SE 9.2 mph - N/A   Clear